Terminal Aerodrome Forecast
Issued by NWS

Home | Current Version | Previous Version | Graphics & Text | Print | Product List | Glossary On
Versions: 1 2 3 4 5 6 7 8 9 10 11 12
000
FTUS42 KMHX 161100
TAFOAJ
TAF
KOAJ 161133Z 1612/1712 00000KT 1/4SM FG OVC002
     FM161330 21006KT P6SM SCT040
     FM161900 21008KT P6SM VCSH BKN040
     FM170300 25008KT P6SM BKN100
      AMD LTD TO CLD VIS AND WIND=

USA.gov is the U.S. government's official web portal to all federal, state and local government web resources and services.